W0WC Weather Reports


Display with metric or nautical units.
time (UTC)temp
F
wind
direction
speed
MPH
gust
MPH
rain 1hr
in
rain 24hr
in
rain mn
in
humidity
%
barometer
mb
20260831222633 102 197 4.0 4.0 0.00 0.00 0.00 28 1015.2
20260831222128 102 107 2.0 2.0 0.00 0.00 0.00 28 1015.1
20260831221624 101 17 2.0 3.0 0.00 0.00 0.00 29 1015.2
20260831221119 101 235 7.0 10.0 0.00 0.00 0.00 29 1015.4
20260831220614 102 193 3.0 4.0 0.00 0.00 0.00 28 1015.1
20260831220109 102 356 1.0 1.0 0.00 0.00 0.00 28 1015.2
20260831215605 102 95 3.0 4.0 0.00 0.00 0.00 28 1015.2
20260831215055 101 230 4.0 6.0 0.00 0.00 0.00 29 1015.3
20260831214552 102 188 3.0 3.0 0.00 0.00 0.00 29 1015.5
20260831214048 102 82 5.0 6.0 0.00 0.00 0.00 29 1015.6
20260831213544 102 327 3.0 6.0 0.00 0.00 0.00 28 1015.6
20260831213039 101 12 2.0 3.0 0.00 0.00 0.00 29 1015.6
20260831212535 100 49 1.0 2.0 0.00 0.00 0.00 30 1015.4
20260831212031 101 152 4.0 4.0 0.00 0.00 0.00 29 1015.6
20260831211525 101 210 3.0 3.0 0.00 0.00 0.00 29 1015.6
20260831211024 102 281 9.0 10.0 0.00 0.00 0.00 28 1015.8
20260831210520 102 314 2.0 3.0 0.00 0.00 0.00 29 1015.7
20260831210016 102 39 3.0 7.0 0.00 0.00 0.00 29 1015.7
20260831205511 103 27 2.0 2.0 0.00 0.00 0.00 29 1015.7
20260831205007 100 344 1.0 2.0 0.00 0.00 0.00 30 1015.8
20260831204507 101 53 4.0 6.0 0.00 0.00 0.00 30 1015.7
20260831204005 100 352 2.0 3.0 0.00 0.00 0.00 30 1015.9
20260831203505 100 265 4.0 6.0 0.00 0.00 0.00 30 1016.0
20260831203003 101 200 8.0 10.0 0.00 0.00 0.00 29 1016.1
20260831202458 100 55 2.0 2.0 0.00 0.00 0.00 30 1016.1
20260831201957 101 215 4.0 4.0 0.00 0.00 0.00 29 1016.3
20260831201456 101 65 4.0 4.0 0.00 0.00 0.00 29 1016.2
20260831200953 101 228 8.0 10.0 0.00 0.00 0.00 28 1016.4
20260831200448 100 332 3.0 3.0 0.00 0.00 0.00 29 1016.4
20260831195948 100 172 10.0 15.0 0.00 0.00 0.00 28 1016.5
20260831195443 101 109 3.0 3.0 0.00 0.00 0.00 28 1016.7
20260831194938 102 181 9.0 11.0 0.00 0.00 0.00 27 1016.6
20260831194434 101 51 1.0 1.0 0.00 0.00 0.00 27 1016.6
20260831193933 100 177 6.0 8.0 0.00 0.00 0.00 28 1016.6
20260831193428 100 282 4.0 6.0 0.00 0.00 0.00 29 1016.6
20260831192923 100 258 7.0 10.0 0.00 0.00 0.00 28 1016.7
20260831192419 100 218 6.0 8.0 0.00 0.00 0.00 29 1016.6
20260831191914 100 220 5.0 9.0 0.00 0.00 0.00 29 1016.9
20260831191410 100 180 6.0 10.0 0.00 0.00 0.00 29 1017.1
20260831190906 99 143 6.0 9.0 0.00 0.00 0.00 30 1016.8
20260831190406 100 140 5.0 6.0 0.00 0.00 0.00 30 1016.8
20260831185905 100 217 5.0 8.0 0.00 0.00 0.00 30 1017.2
20260831185401 101 198 3.0 7.0 0.00 0.00 0.00 29 1017.1
20260831184900 100 56 1.0 2.0 0.00 0.00 0.00 29 1017.0
20260831184355 101 230 4.0 6.0 0.00 0.00 0.00 29 1017.0
20260831183851 99 228 5.0 6.0 0.00 0.00 0.00 30 1017.2
20260831183350 99 213 5.0 9.0 0.00 0.00 0.00 30 1017.3
20260831182849 100 126 5.0 7.0 0.00 0.00 0.00 30 1017.2
20260831182344 100 140 8.0 9.0 0.00 0.00 0.00 29 1017.4
20260831181840 99 55 2.0 4.0 0.00 0.00 0.00 31 1017.4
20260831181335 99 26 1.0 1.0 0.00 0.00 0.00 32 1017.6
20260831180830 99 156 4.0 6.0 0.00 0.00 0.00 31 1017.5
20260831180325 100 129 7.0 9.0 0.00 0.00 0.00 30 1017.6
20260831175823 99 253 2.0 3.0 0.00 0.00 0.00 32 1017.8
20260831175320 99 325 1.0 1.0 0.00 0.00 0.00 33 1017.8
20260831174816 99 261 2.0 3.0 0.00 0.00 0.00 32 1017.6
20260831174312 99 172 4.0 6.0 0.00 0.00 0.00 32 1017.8
20260831173811 98 332 2.0 3.0 0.00 0.00 0.00 33 1017.9
20260831173304 98 262 9.0 10.0 0.00 0.00 0.00 32 1017.8
20260831172800 97 253 2.0 3.0 0.00 0.00 0.00 35 1017.9
20260831172255 97 190 4.0 6.0 0.00 0.00 0.00 35 1018.0
20260831171755 98 153 5.0 7.0 0.00 0.00 0.00 34 1018.2
20260831171253 98 235 6.0 7.0 0.00 0.00 0.00 35 1018.3
20260831170749 97 254 4.0 6.0 0.00 0.00 0.00 35 1018.5
20260831170245 96 290 4.0 7.0 0.00 0.00 0.00 37 1018.3
20260831165741 96 231 5.0 7.0 0.00 0.00 0.00 37 1018.5
20260831165237 96 307 3.0 7.0 0.00 0.00 0.00 38 1018.3
20260831164733 96 286 4.0 4.0 0.00 0.00 0.00 37 1018.4
20260831164229 96 318 6.0 7.0 0.00 0.00 0.00 37 1018.5
20260831163724 96 209 7.0 11.0 0.00 0.00 0.00 37 1018.5
20260831163220 96 162 6.0 8.0 0.00 0.00 0.00 38 1018.3
20260831162718 95 332 4.0 6.0 0.00 0.00 0.00 38 1018.4
20260831162217 95 304 2.0 2.0 0.00 0.00 0.00 39 1018.5
20260831161712 94 117 3.0 4.0 0.00 0.00 0.00 40 1018.7
20260831161209 94 197 4.0 6.0 0.00 0.00 0.00 40 1018.6
20260831160708 94 130 5.0 9.0 0.00 0.00 0.00 40 1018.6
20260831160204 93 24 2.0 3.0 0.00 0.00 0.00 41 1018.5
20260831155703 93 239 5.0 7.0 0.00 0.00 0.00 41 1018.7
20260831155159 93 153 6.0 9.0 0.00 0.00 0.00 42 1018.7
20260831154654 92 312 2.0 2.0 0.00 0.00 0.00 45 1018.7
20260831154150 92 220 6.0 9.0 0.00 0.00 0.00 44 1018.7
20260831153648 91 183 8.0 10.0 0.00 0.00 0.00 45 1018.6
20260831153145 92 203 6.0 8.0 0.00 0.00 0.00 44 1018.6
20260831152640 91 216 6.0 7.0 0.00 0.00 0.00 45 1018.4
20260831152137 90 237 4.0 4.0 0.00 0.00 0.00 46 1018.7
20260831151636 90 219 5.0 9.0 0.00 0.00 0.00 46 1018.5
20260831151131 90 176 4.0 6.0 0.00 0.00 0.00 47 1018.4
20260831150626 89 242 7.0 9.0 0.00 0.00 0.00 47 1018.5
20260831150122 89 201 7.0 9.0 0.00 0.00 0.00 47 1018.4
20260831145621 89 262 6.0 7.0 0.00 0.00 0.00 47 1018.4
20260831145118 89 214 7.0 9.0 0.00 0.00 0.00 48 1018.4
20260831144613 89 102 4.0 6.0 0.00 0.00 0.00 48 1018.6
20260831144109 89 259 4.0 4.0 0.00 0.00 0.00 48 1018.3
20260831143608 88 171 2.0 4.0 0.00 0.00 0.00 48 1018.5
20260831143104 88 229 3.0 3.0 0.00 0.00 0.00 49 1018.6
20260831142601 87 100 5.0 7.0 0.00 0.00 0.00 50 1018.4
20260831142056 87 56 2.0 3.0 0.00 0.00 0.00 51 1018.4
20260831141554 86 231 6.0 10.0 0.00 0.00 0.00 51 1018.3
20260831141050 86 220 4.0 6.0 0.00 0.00 0.00 52 1018.5
20260831140549 85 218 8.0 10.0 0.00 0.00 0.00 52 1018.4
20260831140049 85 113 5.0 7.0 0.00 0.00 0.00 53 1018.3
20260831135547 85 221 7.0 11.0 0.00 0.00 0.00 53 1018.2
20260831135043 84 326 1.0 2.0 0.00 0.00 0.00 54 1018.3
20260831134539 84 132 4.0 6.0 0.00 0.00 0.00 54 1018.2
20260831134039 84 103 4.0 4.0 0.00 0.00 0.00 54 1018.2
20260831133538 84 186 2.0 2.0 0.00 0.00 0.00 54 1018.2
20260831133033 83 73 4.0 4.0 0.00 0.00 0.00 55 1018.2
20260831132530 83 195 5.0 7.0 0.00 0.00 0.00 55 1018.1
20260831132029 82 194 3.0 3.0 0.00 0.00 0.00 55 1018.3
20260831131529 82 193 6.0 8.0 0.00 0.00 0.00 55 1018.2
20260831131026 82 66 2.0 2.0 0.00 0.00 0.00 56 1018.0
20260831130525 82 307 3.0 3.0 0.00 0.00 0.00 56 1017.9
20260831130021 82 234 3.0 4.0 0.00 0.00 0.00 56 1018.0
20260831125514 81 197 3.0 3.0 0.00 0.00 0.00 56 1017.9
20260831125010 81 183 3.0 6.0 0.00 0.00 0.00 56 1017.6
20260831124507 81 0 3.0 4.0 0.00 0.00 0.00 56 1017.8
20260831124002 80 179 4.0 6.0 0.00 0.00 0.00 57 1017.6
20260831123501 80 145 2.0 3.0 0.00 0.00 0.00 57 1017.6
20260831122955 80 163 2.0 3.0 0.00 0.00 0.00 57 1017.3
20260831122451 80 100 2.0 2.0 0.00 0.00 0.00 57 1017.4
20260831121946 80 174 4.0 4.0 0.00 0.00 0.00 57 1017.4
20260831121441 79 207 4.0 4.0 0.00 0.00 0.00 58 1017.0
20260831120937 79 81 4.0 4.0 0.00 0.00 0.00 57 1017.0
20260831120431 79 130 2.0 2.0 0.00 0.00 0.00 57 1017.1
20260831115931 79 134 4.0 6.0 0.00 0.00 0.00 57 1016.7
20260831115427 79 198 2.0 4.0 0.00 0.00 0.00 57 1017.1
20260831114927 79 180 4.0 6.0 0.00 0.00 0.00 57 1016.7
20260831114426 79 187 4.0 7.0 0.00 0.00 0.00 57 1016.8
20260831113922 79 154 4.0 6.0 0.00 0.00 0.00 57 1016.8
20260831113422 80 153 2.0 2.0 0.00 0.00 0.00 56 1016.6
20260831112917 80 167 3.0 4.0 0.00 0.00 0.00 56 1016.5
20260831112417 80 282 2.0 2.0 0.00 0.00 0.00 56 1016.7
20260831111912 80 236 2.0 3.0 0.00 0.00 0.00 56 1016.6
20260831111408 80 45 3.0 4.0 0.00 0.00 0.00 56 1016.5
20260831110904 80 52 2.0 3.0 0.00 0.00 0.00 55 1016.4
20260831110403 80 156 3.0 3.0 0.00 0.00 0.00 55 1016.6
20260831105902 80 70 1.0 2.0 0.00 0.00 0.00 55 1016.5
20260831105358 80 183 4.0 4.0 0.00 0.00 0.00 55 1016.2
20260831104853 80 182 6.0 8.0 0.00 0.00 0.00 55 1016.4
20260831104349 80 121 4.0 6.0 0.00 0.00 0.00 55 1016.2
20260831103844 80 208 4.0 4.0 0.00 0.00 0.00 55 1016.3
20260831103339 80 138 4.0 6.0 0.00 0.00 0.00 55 1016.3
20260831102834 80 189 3.0 4.0 0.00 0.00 0.00 54 1016.4
20260831102329 80 142 1.0 2.0 0.00 0.00 0.00 54 1016.3
20260831101825 80 74 2.0 2.0 0.00 0.00 0.00 54 1016.3
20260831101320 80 186 5.0 7.0 0.00 0.00 0.00 54 1016.1
20260831100816 80 162 5.0 8.0 0.00 0.00 0.00 53 1016.2
20260831100312 80 331 2.0 3.0 0.00 0.00 0.00 53 1016.3
20260831095811 80 199 1.0 2.0 0.00 0.00 0.00 53 1016.1
20260831095306 80 202 6.0 8.0 0.00 0.00 0.00 52 1016.0
20260831094801 80 231 3.0 4.0 0.00 0.00 0.00 52 1016.1
20260831094256 81 108 2.0 2.0 0.00 0.00 0.00 52 1015.9
20260831093752 81 95 3.0 3.0 0.00 0.00 0.00 52 1016.0
20260831093252 81 146 4.0 4.0 0.00 0.00 0.00 51 1016.0
20260831092749 81 178 2.0 2.0 0.00 0.00 0.00 51 1016.0
20260831092244 81 81 3.0 4.0 0.00 0.00 0.00 51 1016.0
20260831091743 81 28 2.0 2.0 0.00 0.00 0.00 50 1016.0
20260831091240 81 179 6.0 8.0 0.00 0.00 0.00 50 1016.0
20260831090735 81 131 2.0 3.0 0.00 0.00 0.00 50 1016.0
20260831090231 81 117 2.0 3.0 0.00 0.00 0.00 50 1015.9
20260831085727 81 127 2.0 2.0 0.00 0.00 0.00 49 1015.8
20260831085221 82 174 2.0 3.0 0.00 0.00 0.00 49 1015.9
20260831084716 82 68 3.0 4.0 0.00 0.00 0.00 49 1015.9
20260831084213 82 85 4.0 7.0 0.00 0.00 0.00 48 1015.6
20260831083708 82 243 4.0 6.0 0.00 0.00 0.00 48 1015.7
20260831083204 82 158 4.0 4.0 0.00 0.00 0.00 48 1016.0
20260831082702 82 249 3.0 3.0 0.00 0.00 0.00 48 1015.8
20260831082158 82 99 4.0 6.0 0.00 0.00 0.00 47 1015.6
20260831081653 82 201 2.0 3.0 0.00 0.00 0.00 47 1015.8
20260831081149 82 135 4.0 8.0 0.00 0.00 0.00 47 1015.6
20260831080644 83 153 4.0 6.0 0.00 0.00 0.00 47 1015.5
20260831080139 83 134 3.0 4.0 0.00 0.00 0.00 47 1015.5
20260831075635 83 96 2.0 3.0 0.00 0.00 0.00 47 1015.6
20260831075130 83 261 3.0 4.0 0.00 0.00 0.00 47 1015.5
20260831074629 83 164 3.0 3.0 0.00 0.00 0.00 48 1015.5
20260831074124 83 283 2.0 2.0 0.00 0.00 0.00 48 1015.4
20260831073624 83 165 8.0 9.0 0.00 0.00 0.00 48 1015.5
20260831073124 82 147 5.0 6.0 0.00 0.00 0.00 48 1015.5
20260831072620 82 238 3.0 3.0 0.00 0.00 0.00 49 1015.5
20260831072116 83 125 2.0 3.0 0.00 0.00 0.00 49 1015.4
20260831071614 83 168 5.0 8.0 0.00 0.00 0.00 49 1015.4
20260831071110 83 156 6.0 7.0 0.00 0.00 0.00 48 1015.4
20260831070609 83 147 8.0 10.0 0.00 0.00 0.00 48 1015.3
20260831070104 83 166 4.0 7.0 0.00 0.00 0.00 48 1015.4
20260831065602 83 90 2.0 3.0 0.00 0.00 0.00 49 1015.6
20260831065056 83 207 2.0 4.0 0.00 0.00 0.00 49 1015.6
20260831064551 83 130 4.0 6.0 0.00 0.00 0.00 49 1015.6
20260831064047 83 172 5.0 6.0 0.00 0.00 0.00 49 1015.5
20260831063542 83 135 3.0 6.0 0.00 0.00 0.00 49 1015.4
20260831063037 83 107 6.0 7.0 0.00 0.00 0.00 49 1015.4
20260831062532 83 177 6.0 8.0 0.00 0.00 0.00 50 1015.4
20260831062031 83 135 7.0 10.0 0.00 0.00 0.00 50 1015.4
20260831061524 83 183 5.0 7.0 0.00 0.00 0.00 50 1015.5
20260831061020 83 126 2.0 2.0 0.00 0.00 0.00 50 1015.5
20260831060520 83 153 6.0 7.0 0.00 0.00 0.00 50 1015.4
20260831060016 83 131 2.0 3.0 0.00 0.00 0.00 50 1015.6
20260831055509 83 108 2.0 3.0 0.00 0.00 0.00 50 1015.7
20260831055005 83 136 4.0 6.0 0.00 0.00 0.00 50 1015.5
20260831054459 83 107 5.0 9.0 0.00 0.00 0.00 50 1015.7
20260831053958 84 104 4.0 4.0 0.00 0.00 0.00 50 1015.6
20260831053456 84 145 5.0 6.0 0.00 0.00 0.00 50 1015.6
20260831052952 84 178 2.0 3.0 0.00 0.00 0.00 49 1015.6
20260831052451 84 68 4.0 6.0 0.00 0.00 0.00 49 1015.7
20260831051949 84 199 4.0 6.0 0.00 0.00 0.00 49 1015.6
20260831051448 84 122 4.0 7.0 0.00 0.00 0.00 48 1015.5
20260831050943 84 124 3.0 4.0 0.00 0.00 0.00 48 1015.6
20260831050443 84 75 2.0 3.0 0.00 0.00 0.00 48 1015.4
20260831045941 84 198 6.0 8.0 0.00 0.00 0.00 48 1015.4
20260831045441 85 166 6.0 8.0 0.00 0.00 0.00 47 1015.5
20260831044936 85 146 4.0 4.0 0.00 0.00 0.00 47 1015.6
20260831044431 85 58 4.0 7.0 0.00 0.00 0.00 46 1015.2
20260831043927 85 103 3.0 3.0 0.00 0.00 0.00 46 1015.3
20260831043426 86 204 4.0 4.0 0.00 0.00 0.00 45 1015.3
20260831042922 86 166 4.0 4.0 0.00 0.00 0.00 45 1015.3
20260831042421 86 138 5.0 7.0 0.00 0.00 0.00 44 1015.3
20260831041916 86 105 4.0 6.0 0.00 0.00 0.00 44 1015.2
20260831041416 86 144 2.0 3.0 0.00 0.00 0.00 43 1015.3
20260831040912 86 201 6.0 7.0 0.00 0.00 0.00 43 1015.2
20260831040412 87 50 2.0 3.0 0.00 0.00 0.00 42 1015.2
20260831035909 87 138 3.0 3.0 0.00 0.00 0.00 42 1015.1
20260831035409 87 116 6.0 7.0 0.00 0.00 0.00 42 1015.2
20260831034908 87 37 1.0 2.0 0.00 0.00 0.00 42 1015.1
20260831034404 87 63 1.0 1.0 0.00 0.00 0.00 42 1015.1
20260831033859 87 136 3.0 4.0 0.00 0.00 0.00 42 1015.0
20260831033354 87 19 0.0 0.0 0.00 0.00 0.00 42 1014.7
20260831032850 87 36 1.0 1.0 0.00 0.00 0.00 42 1015.0
20260831032349 87 187 2.0 4.0 0.00 0.00 0.00 42 1014.9
20260831031845 88 54 2.0 3.0 0.00 0.00 0.00 42 1014.6
20260831031344 88 28 1.0 1.0 0.00 0.00 0.00 41 1014.8
20260831030839 88 146 2.0 2.0 0.00 0.00 0.00 41 1014.7
20260831030338 89 22 0.0 1.0 0.00 0.00 0.00 41 1014.9
20260831025837 89 91 2.0 2.0 0.00 0.00 0.00 40 1014.7
20260831025332 89 188 2.0 3.0 0.00 0.00 0.00 40 1014.7
20260831024827 89 32 1.0 1.0 0.00 0.00 0.00 40 1014.7
20260831024326 89 44 1.0 2.0 0.00 0.00 0.00 40 1014.6
20260831023825 89 28 1.0 2.0 0.00 0.00 0.00 40 1014.5
20260831023324 89 46 1.0 2.0 0.00 0.00 0.00 40 1014.4
20260831022820 90 47 1.0 1.0 0.00 0.00 0.00 40 1014.1
20260831022319 90 38 1.0 1.0 0.00 0.00 0.00 40 1014.4
20260831021814 90 127 2.0 4.0 0.00 0.00 0.00 39 1014.4
20260831021313 90 120 2.0 3.0 0.00 0.00 0.00 39 1014.2
20260831020809 90 81 1.0 2.0 0.00 0.00 0.00 39 1014.1
20260831020308 90 31 2.0 3.0 0.00 0.00 0.00 39 1014.2
20260831015804 91 345 0.0 1.0 0.00 0.00 0.00 39 1014.1
20260831015300 91 64 1.0 1.0 0.00 0.00 0.00 39 1014.0
20260831014759 91 198 4.0 6.0 0.00 0.00 0.00 39 1013.9
20260831014254 91 45 1.0 1.0 0.00 0.00 0.00 39 1013.9
20260831013751 91 15 0.0 0.0 0.00 0.00 0.00 39 1013.8
20260831013250 91 12 0.0 1.0 0.00 0.00 0.00 39 1013.7
20260831012745 92 19 0.0 0.0 0.00 0.00 0.00 38 1013.9
20260831012240 92 38 1.0 1.0 0.00 0.00 0.00 37 1013.9
20260831011739 93 327 1.0 1.0 0.00 0.00 0.00 37 1013.7
20260831011235 93 42 1.0 1.0 0.00 0.00 0.00 37 1014.0
20260831010731 93 46 2.0 2.0 0.00 0.00 0.00 36 1013.6
20260831010231 94 148 3.0 4.0 0.00 0.00 0.00 36 1013.9
20260831005726 94 46 2.0 3.0 0.00 0.00 0.00 35 1013.8
20260831005221 95 188 2.0 4.0 0.00 0.00 0.00 35 1013.7
20260831004717 95 308 1.0 2.0 0.00 0.00 0.00 34 1013.8
20260831004213 95 170 2.0 2.0 0.00 0.00 0.00 34 1013.9
20260831003708 96 66 1.0 2.0 0.00 0.00 0.00 34 1013.8
20260831003205 96 76 3.0 4.0 0.00 0.00 0.00 33 1013.8
20260831002703 96 214 4.0 7.0 0.00 0.00 0.00 33 1013.7
20260831002158 97 94 4.0 6.0 0.00 0.00 0.00 32 1013.8
20260831001654 97 125 4.0 6.0 0.00 0.00 0.00 32 1013.7
20260831001149 97 74 3.0 3.0 0.00 0.00 0.00 32 1013.7
20260831000646 97 161 5.0 7.0 0.00 0.00 0.00 32 1013.6
20260831000146 98 107 6.0 7.0 0.00 0.00 0.00 31 1013.8
20260830235644 98 157 5.0 6.0 0.00 0.00 0.00 31 1013.9
20260830235140 98 156 3.0 3.0 0.00 0.00 0.00 31 1013.6
20260830234635 98 133 4.0 4.0 0.00 0.00 0.00 31 1013.7
20260830234130 99 167 5.0 7.0 0.00 0.00 0.00 30 1013.8
20260830233626 99 184 7.0 10.0 0.00 0.00 0.00 31 1013.7
20260830233121 99 142 4.0 6.0 0.00 0.00 0.00 30 1013.7
20260830232617 100 186 5.0 6.0 0.00 0.00 0.00 30 1013.7
20260830232113 100 223 6.0 9.0 0.00 0.00 0.00 29 1013.8
20260830231608 100 169 4.0 4.0 0.00 0.00 0.00 29 1013.7
20260830231108 100 156 9.0 11.0 0.00 0.00 0.00 29 1013.8
20260830230603 100 151 4.0 6.0 0.00 0.00 0.00 28 1013.7
20260830230058 101 196 4.0 4.0 0.00 0.00 0.00 29 1014.0
20260830225553 100 125 2.0 3.0 0.00 0.00 0.00 30 1013.7
20260830225053 100 227 9.0 13.0 0.00 0.00 0.00 30 1013.6
20260830224551 100 180 5.0 8.0 0.00 0.00 0.00 30 1013.6
20260830224049 99 200 3.0 3.0 0.00 0.00 0.00 31 1013.6
20260830223546 99 213 6.0 8.0 0.00 0.00 0.00 31 1013.7
20260830223045 100 169 4.0 7.0 0.00 0.00 0.00 30 1013.8